Volver al catálogo

THOR ABLESTAR DEB

ActivoLEO
NORAD 48821·DEBRIS·🇺🇸 United States

Lanzado Jun 29, 1961 desde Cape Canaveral Space Force Station

Loading…

Próximos Pases (próximas 24 horas)

TLE

ActualizadoSource: Space-Track

Época: Sep 14, 2026, 08:52 UTC

1 48821U 61015MZ  26257.36965445  .00000226  00000-0  73240-3 0  9999
2 48821  67.9326 281.8960 0508980   6.5380 354.1964 12.77451318565810

Sigue THOR ABLESTAR DEB en tiempo real con AllMySat

Download on the App Store